EUTELSAT 33F

Last updated on Mon Sep 07 2026 00:02:57 GMT+0000 (Coordinated Universal Time)

1 29270U 06032A 26249.59832169 .00000139 00000+0 00000+0 0 9998 2 29270 1.8654 81.2198 0003328 86.6284 66.3184 1.00270770 48122
UTC large
Height (km)
Speed (km/s)
/
Latitude / Longitude
Inclination (degrees)
Orbital Period (minutes)
Azimuth
Elevation
Range (km)
Doppler Factor

Next 0 passes for location: London (51.5072 / 0.1276)

No passes found over London.
EUTELSAT 33F